カタログに戻る

SESAT 2

EXPRESS AM-22

運用中通信GEO
NORAD 28134·PAYLOAD·🇪🇺 EU

打ち上げ Dec 28, 2003 から Baikonur Cosmodrome

Loading…

TLE

最新Source: Space-Track

元期: Sep 14, 2026, 06:51 UTC

1 28134U 03060A   26257.28565102 -.00000250  00000-0  00000-0 0  9996
2 28134   8.4900  63.0582 0013208 140.3263 230.8707  0.99364735 82922

AllMySatでSESAT 2をリアルタイム追跡

Download on the App Store